This is the latest recevied weather packets stored in our database for station/object W8CEN. If no packets are shown the sender has not sent any weather packets the latest 10 day(s).
| Time | Temp. | Humidity | Pressure | Rain* | Wind** | Luminosity | Snow |
|---|---|---|---|---|---|---|---|
| 1777927104 | 24.44° C | 46% | 980.6 hPa | 0 mm | - | 226 W/m² | - |
| 1777926801 | 24.44° C | 45% | 980.8 hPa | 0 mm | - | 186 W/m² | - |
| 1777926496 | 24.44° C | 45% | 981.1 hPa | 0 mm | - | 256 W/m² | - |
| 1777926194 | 25° C | 44% | 980.9 hPa | 0 mm | - | 288 W/m² | - |
| 1777925890 | 25° C | 45% | 981.3 hPa | 0 mm | - | 520 W/m² | - |
| 1777925588 | 24.44° C | 45% | 981.1 hPa | 0 mm | - | 740 W/m² | - |
| 1777925286 | 25° C | 43% | 981.4 hPa | 0 mm | - | 261 W/m² | - |
| 1777924982 | 25.56° C | 42% | 981.2 hPa | 0 mm | - | 208 W/m² | - |
| 1777924678 | 25.56° C | 44% | 981.2 hPa | 0 mm | - | 685 W/m² | - |
| 1777924374 | 25° C | 43% | 981.2 hPa | 0 mm | - | 782 W/m² | - |
| 1777924071 | 25° C | 41% | 981.6 hPa | 0 mm | - | 219 W/m² | - |
| 1777923767 | 25° C | 40% | 981.6 hPa | 0 mm | - | 741 W/m² | - |
| 1777923463 | 25° C | 41% | 981.6 hPa | 0 mm | - | 742 W/m² | - |
| 1777923161 | 24.44° C | 42% | 981.7 hPa | 0 mm | - | 790 W/m² | - |
| 1777922859 | 25° C | 39% | 982 hPa | 0 mm | - | 760 W/m² | - |
| 1777922557 | 25° C | 39% | 982 hPa | 0 mm | - | 776 W/m² | - |
| 1777922256 | 24.44° C | 39% | 982 hPa | 0 mm | - | 767 W/m² | - |
| 1777921952 | 25° C | 36% | 982.1 hPa | 0 mm | - | 713 W/m² | - |
| 1777921647 | 25° C | 37% | 982.3 hPa | 0 mm | - | 794 W/m² | - |
| 1777921344 | 25° C | 36% | 982.3 hPa | 0 mm | - | 800 W/m² | - |
| 1777921040 | 24.44° C | 37% | 982.2 hPa | 0 mm | - | 809 W/m² | - |
| 1777920737 | 25° C | 39% | 982.1 hPa | 0 mm | - | 818 W/m² | - |
| 1777920433 | 25° C | 41% | 982.1 hPa | 0 mm | - | 826 W/m² | - |
| 1777920129 | 25° C | 40% | 982.3 hPa | 0 mm | - | 836 W/m² | - |
| 1777919825 | 25° C | 41% | 982.5 hPa | 0 mm | - | 845 W/m² | - |
* Rain latest hour (hover to see other rain measurements)
** Current wind speed in m/s (hover to see current wind gust speed)